Regional Weather Roundup
Issued by NWS

Home | Current Version | Previous Version | Graphics & Text | Print | Product List | Glossary On
Versions: 1 2 3 4 5 6 7 8 9 10 11 12 13 14 15 16 17 18 19 20 21 22 23 24 25 26 27 28 29 30 31 32 33 34 35 36 37 38 39 40 41 42 43 44 45 46 47 48 49 50
000
ASUS45 KBOU 020307
RWRCO

WEATHER ROUNDUP FOR COLORADO
NATIONAL WEATHER SERVICE DENVER/BOULDER CO
900 PM MDT TUE SEP 01 2015

NOTE: "FAIR" INDICATES FEW OR NO CLOUDS BELOW 12000 FEET WITH NO
SIGNIFICANT WEATHER AND/OR OBSTRUCTIONS TO VISIBILITY.

COZ001>005-013-030-031-020400-
...NORTHWEST COLORADO...

CITY           SKY/WX    TMP DP  RH WIND       PRES   REMARKS
CRAIG          CLOUDY    65  43  44 NW6       30.20R
HAYDEN         NOT AVBL
MEEKER         CLOUDY    61  47  59 N8        30.23F
MOUNT WERNER   NOT AVBL
STEAMBOAT SPGS CLOUDY    58  46  65 CALM      30.25R
WALDEN         MOCLDY    55  36  47 N7        30.33R
$$

COZ006>008-011-020400-
...WEST CENTRAL VALLEYS...

CITY           SKY/WX    TMP DP  RH WIND       PRES   REMARKS
GRAND JUNCTION CLOUDY    72  47  40 E16       30.11R
MONTROSE       CLOUDY    70  48  45 W15G29    30.19R
EAGLE          MOCLDY    70  43  37 W6        30.23R
RIFLE          LGT RAIN  64  50  60 N6        30.25R
DELTA          CLOUDY    79  42  26 W14G30    30.12R
NUCLA          CLOUDY    72  41  33 W7        30.21R
$$

COZ017>023-064>068-020400-
...SOUTHWEST COLORADO...

CITY           SKY/WX    TMP DP  RH WIND       PRES   REMARKS
DURANGO        MOCLDY    72  42  34 W7        30.23R
CORTEZ         PTCLDY    67  47  48 S7        30.17R
PAGOSA SPRINGS MOCLDY    66  39  36 CALM      30.31R
TELLURIDE      CLOUDY    55  50  82 CALM      30.45R
WOLF CREEK PAS MOCLDY    46  37  71 SW23G29   30.64R
$$

COZ009-010-012-014-032>034-037-058>063-020400-
...CENTRAL COLORADO...

CITY           SKY/WX    TMP DP  RH WIND       PRES   REMARKS
ASPEN          MOCLDY    60  47  61 S6        30.29R
BUENA VISTA    MOCLDY    59  46  60 NW12      30.34R
COPPER MTN     LGT RAIN  48  36  61 S17       30.62R
BERTHOUD PASS  MOCLDY    45  32  61 MISG      30.66R
COTTONWOOD PAS MOCLDY    55  41  58 NW8       30.47R
GUNNISON       MOCLDY    64  45  48 SW3       30.34R
KREMMLING      PTCLDY    54  45  71 CALM      30.30R
LEADVILLE      MOCLDY    48  43  82 SE6       30.46F
SALIDA         MOCLDY    71  38  30 W8        30.37R
SUNLIGHT       TSTM      45  43  93 W12G23    30.57R
WILKERSON PASS RAIN      48  37  66 NW8G26    30.59R
$$

COZ069>075-020400-
...SAN LUIS VALLEY/SANGRE DE CRISTO MOUNTAINS...

CITY           SKY/WX    TMP DP  RH WIND       PRES   REMARKS
ALAMOSA        MOCLDY    61  47  59 NE7       30.30R
LA VETA PASS   MOCLDY    55  39  54 MISG      30.48R
SAGUACHE       CLOUDY    59  50  72 N7        30.34R
$$

COZ035-036-038>040-020400-
...NORTHERN COLORADO FRONT RANGE...

CITY           SKY/WX    TMP DP  RH WIND       PRES   REMARKS
DENVER INTL AP PTCLDY    71  46  40 S13       30.10R
DMNS CITY PARK   N/A     74  44  34 SE7       30.10R
AURORA         MOCLDY    70  46  41 S8        30.13R
FRONT RANGE AP NOT AVBL
ERIE MUNI ARPT PTCLDY    71  45  38 CALM      30.07R
BOULDER MUN AP PTCLDY    70  45  40 E6        30.08R
CENTENNIAL     MOCLDY    68  46  45 S10       30.14R
BROOMFIELD     MOCLDY    73  45  35 VRB5      30.11R
FORT COLLINS   PTCLDY    68  43  40 S10       30.05R
LONGMONT       PTCLDY    67  50  53 CALM      30.08R
$$

COZ041-046-047-076>085-087-088-020400-
...PIKES PEAK/PALMER DIVIDE AND SOUTHERN FOOTHILLS...

CITY           SKY/WX    TMP DP  RH WIND       PRES   REMARKS
COLO. SPRINGS  MOCLDY    65  52  62 NW5       30.20R
A. F. ACADEMY  MOCLDY    63  50  63 E2        30.21R
ELLICOTT       CLOUDY   N/A N/A N/A E8        30.17R THUNDER
FALCON         MOCLDY    62  48  60 MISG      30.24R
FORT CARSON    MOCLDY    66  49  54 SW6       30.17R
LIMON          MOCLDY    70  47  43 SW9       30.11R
MONUMENT HILL  PTCLDY    59  45  58 SW12      30.24R
TRINIDAD       PTCLDY    71  45  39 VRB3      30.11R
$$

COZ042>045-048>051-090-091-020400-
...NORTHEAST COLORADO...

CITY           SKY/WX    TMP DP  RH WIND       PRES   REMARKS
GREELEY ARPT   PTCLDY    72  45  37 CALM      30.03S
AKRON          CLEAR     73  40  30 S7        30.03R
BURLINGTON     PTCLDY    71  58  63 SE9       30.04R
WRAY           CLOUDY    76  53  43 S9        29.98R
STERLING       NOT AVBL
HOLYOKE        CLEAR     70  57  64 S8        29.97R
FORT MORGAN    CLEAR     70  42  36 CALM      30.02R
$$

COZ086-089-092>099-020400-
...SOUTHEAST COLORADO...

CITY           SKY/WX    TMP DP  RH WIND       PRES   REMARKS
PUEBLO         CLOUDY    74  54  49 N13       30.07R
LA JUNTA       PTCLDY    79  51  37 S8        30.00R
LAMAR          CLEAR     74  60  61 S5        29.97R
SPRINGFIELD      N/A     72  54  53 S14       30.05R
$$



USA.gov is the U.S. government's official web portal to all federal, state and local government web resources and services.